Location: Presov
(49.0000°N, 21.2500°E)
Time: 07:16:00
(UTC+02:00)

Transit 2A Rocket - Pass Details

Date: 19 April 2021
Orbit: 594 x 909 km, 66.7° (Epoch: 07 May)

Event Time Altitude Azimuth Distance (km) Brightness Sun altitude
Rises 15:12:35 0° 179° (S) 2,960 8.4 40.1°
Reaches altitude 10° 15:15:16 10° 166° (SSE) 2,011 7.5 39.7°
Maximum altitude 15:18:51 24° 113° (ESE) 1,290 6.2 39.3°
Drops below altitude 10° 15:22:19 10° 60° (ENE) 1,947 6.7 38.8°
Sets 15:24:51 0° 46° (NE) 2,843 7.5 38.4°
